Volver al catálogo

ECHOSTAR 19

ActivoComunicacionesGEO
NORAD 41893·PAYLOAD·🇺🇸 United States

Lanzado Dec 18, 2016 desde Cape Canaveral Space Force Station

Loading…

TLE

ActualizadoSource: Space-Track

Época: Sep 14, 2026, 15:26 UTC

1 41893U 16079A   26257.64315978 -.00000146  00000-0  00000-0 0  9995
2 41893   0.0195 156.0480 0001431   7.8804 324.1329  1.00271992 35601

Sigue ECHOSTAR 19 en tiempo real con AllMySat

Download on the App Store